[[{"header":{"parameterUnit":"m.s-1","parameterCategory":1,"la1":30.2991,"la2":30.254,"lo1":-89.0895,"lo2":-89.0444,"dy":0.0017,"dx":0.0017,"nx":28,"ny":28,"refTime":"2024-10-04T03:00:00:Z","depth":0,"parameterNumber":2,"parameterNumberName":"U-component_of_WINDS"},"data":[0,0,0,0,0,0,0,0,0,0,0,0,0,0,0,0,0,0,0,0,0,0,0,0,0,0,0,0,0,0,0,0,0,0,0,0,0,0,0,0,0,0,0,0,0,0,0,0,0,0,0,0,0,0,0,0,0,0,-4.0474,-4.0474,0,-4.051,-4.0511,-4.0511,-4.0364,-4.036,-4.0355,-4.0351,-4.0392,-4.0397,-4.0402,0,0,0,0,0,0,0,0,0,0,0,0,0,-4.0279,-4.0283,-4.0474,-4.0474,-4.0475,-4.051,-4.0511,-4.0511,-4.0365,-4.0359,-4.0354,-4.0349,-4.039,-4.0397,-4.0403,0,0,0,0,0,0,0,0,0,0,0,0,0,-4.0345,-4.0285,-4.0474,-4.0406,-4.04,-4.051,-4.0511,-4.0511,-4.0366,-4.0359,-4.0353,-4.0347,-4.0388,-4.0396,-4.0404,-4.0582,0,0,-4.0427,-4.0431,0,0,0,0,0,0,0,0,-4.0341,-4.0352,-4.0415,-4.041,-4.0404,-4.0426,-4.0457,-4.0535,-4.0367,-4.0379,-4.0351,-4.0343,-4.0409,-4.0414,-4.0436,-4.0584,-4.0586,-4.0428,-4.0433,-4.0436,-4.0438,0,0,0,0,0,0,0,-4.0337,-4.035,-4.0488,-4.0416,-4.041,-4.0374,-4.0376,-4.0471,-4.043,-4.0377,-4.0367,-4.0373,-4.0405,-4.0429,-4.0436,-4.0587,-4.0428,-4.0435,-4.0439,-4.0442,-4.0884,-4.0891,0,0,0,0,0,0,-4.0341,-4.0347,-4.0487,-4.0489,-4.0356,-4.0383,-4.0385,-4.0426,-4.0429,-4.0423,-4.0378,-4.0366,-4.0419,-4.0427,-4.0437,-4.0647,-4.0436,-4.0443,-4.0448,-4.0877,-4.0886,-4.0894,0,0,0,0,0,0,-4.0337,-4.0355,-4.0485,-4.0415,-4.0429,-4.0393,-4.044,-4.043,-4.0454,-4.0429,-4.0422,-4.0411,-4.0414,-4.0426,-4.0547,-4.0647,-4.0447,-4.0454,-4.0869,-4.088,-4.089,-4.107,0,0,0,0,0,0,-4.0332,-4.0354,-4.0421,-4.0418,-4.0433,-4.0595,-4.0446,-4.0435,-4.0467,-4.0451,-4.0458,-4.0452,-4.041,-4.0536,-4.0555,-4.0654,-4.046,-4.086,-4.0874,-4.0886,-4.1055,-4.1085,-4.1111,0,0,0,0,0,-4.0326,-4.0471,-4.0425,-4.0443,-4.0516,-4.0601,-4.061,-4.0557,-4.0476,-4.0543,-4.0528,-4.0452,-4.0632,-4.055,-4.057,-4.0672,-4.0853,-4.087,-4.0885,-4.1042,-4.1079,-4.1111,0,0,0,0,0,0,-4.0489,-4.0469,-4.0419,-4.0567,-4.0587,-4.0576,-4.066,-4.0598,-4.0642,-4.0626,-4.0559,-4.0562,-4.0695,-4.0695,-4.0604,-4.0846,-4.0729,-4.075,-4.0842,-4.0877,-4.0904,-4.0903,-4.0466,0,0,0,0,0,-4.0541,-4.0611,-4.0591,-4.0724,-4.0736,-4.0697,-4.0732,-4.0689,-4.0707,-4.0715,-4.0708,-4.073,-4.0791,-4.0833,-4.0888,-4.1053,-4.1054,-4.1133,-4.1162,-4.1185,-4.1205,-4.1293,-4.1329,-4.0946,-4.0946,-4.0946,0,0,-4.0652,-4.065,-4.0698,-4.0756,-4.0767,-4.0842,-4.0705,-4.079,-4.0845,-4.0728,-4.0843,-4.0839,-4.0858,-4.1003,-4.1066,-4.1007,-4.131,-4.1205,-4.1224,-4.1231,-4.1314,-4.135,-4.1382,-4.0957,-4.0955,-4.0953,0,0,-4.0892,-4.0897,-4.1009,-4.1022,-4.1039,-4.1011,-4.1038,-4.1037,-4.103,-4.1143,-4.1058,-4.1122,-4.1229,-4.1247,-4.127,-4.1517,-4.145,-4.1537,-4.1685,-4.1773,-4.1803,-4.1829,-4.192,-4.1952,-4.1555,-4.1556,-4.1556,0,-4.1028,-4.1137,-4.1074,-4.1165,-4.1194,-4.109,-4.1204,-4.1219,-4.1254,-4.1277,-4.121,-4.1342,-4.1348,-4.1496,-4.1556,-4.1577,-4.1607,-4.1537,-4.1803,-4.1829,-4.1853,-4.1938,-4.1972,-4.1567,-4.1565,-4.1564,-4.1563,0,-4.1304,-4.138,-4.1469,-4.1504,-4.1542,-4.1644,-4.1599,-4.1645,-4.1598,-4.1579,-4.1696,-4.1699,-4.1754,-4.1785,-4.1741,-4.1927,-4.189,-4.1814,-4.1696,-4.1901,-4.198,-4.2012,-4.1582,-4.1578,-4.1575,-4.1572,0,0,-4.165,-4.1649,-4.1683,-4.1698,-4.1708,-4.1767,-4.1864,-4.1916,-4.1958,-4.1985,-4.2067,-4.2159,-4.2089,-4.2115,-4.2072,-4.2148,-4.2346,-4.2063,-4.2062,-4.2117,-4.2554,-4.2613,-4.2652,-4.23,-4.2306,-4.2311,-4.2553,0,-4.1888,-4.2053,-4.2,-4.2168,-4.2239,-4.2141,-4.2226,-4.2243,-4.2227,-4.2285,-4.2267,-4.2335,-4.2235,-4.2251,-4.2322,-4.2307,-4.2433,-4.2288,-4.2378,-4.2381,-4.2379,-4.2693,-4.2756,-4.2984,-4.2583,-4.2589,-4.2592,0,-4.2187,-4.2226,-4.2402,-4.24,-4.2428,-4.2506,-4.2549,-4.2606,-4.2623,-4.2605,-4.2635,-4.2576,-4.2672,-4.2552,-4.2685,-4.2588,-4.262,-4.2619,-4.2626,-4.2635,-4.2502,-4.2713,-4.3056,-4.3091,-4.264,-4.2636,-4.2633,0,-4.2426,-4.2521,-4.2638,-4.2654,-4.2655,-4.2712,-4.2716,-4.2726,-4.2761,-4.2799,-4.2821,-4.2871,-4.2899,-4.2939,-4.2895,-4.2811,-4.3036,-4.2911,-4.3026,-4.3028,-4.308,-4.3078,-4.3437,-4.3098,-4.3097,-4.3096,-4.3096,0,-4.2698,-4.281,-4.2745,-4.2818,-4.2941,-4.2878,-4.3002,-4.2994,-4.3004,-4.3074,-4.2991,-4.306,-4.2996,-4.3059,-4.3025,-4.3142,-4.3154,-4.3144,-4.3135,-4.3154,-4.3155,-4.3176,-4.316,-4.3105,-4.3103,-4.3102,-4.31,0,-4.2986,-4.2947,-4.3069,-4.306,-4.306,-4.3151,-4.3144,-4.3211,-4.3188,-4.3278,-4.3296,-4.3261,-4.3331,-4.329,-4.3361,-4.3338,-4.3491,-4.3457,-4.3485,-4.3478,-4.3596,-4.3587,-4.3983,-4.4033,-4.3659,-4.3663,-4.3666,0,-4.3164,-4.3248,-4.3247,-4.3288,-4.3297,-4.3363,-4.3398,-4.3339,-4.3379,-4.3405,-4.347,-4.3532,-4.3579,-4.3694,-4.3676,-4.373,-4.37,-4.3835,-4.3708,-4.3724,-4.3705,-4.3702,-4.3711,-4.3861,-4.3866,-4.3869,-4.3872,0,-4.3485,-4.3461,-4.3514,-4.3561,-4.3605,-4.3639,-4.3667,-4.3705,-4.3646,-4.3696,-4.3765,-4.3802,-4.3873,-4.3937,-4.3983,-4.3987,-4.3922,-4.3912,-4.3942,-4.3964,-4.3977,-4.3974,-4.3558,-4.3904,-4.3901,-4.3898,-4.3897,-4.3895,-4.3725,-4.3795,-4.3806,-4.3868,-4.3882,-4.391,-4.3973,-4.3958,-4.4014,-4.4068,-4.4029,-4.4113,-4.4127,-4.4182,-4.4195,-4.426,-4.4205,-4.4248,-4.426,-4.4272,-4.429,-4.3965,-4.4267,-4.4266,-4.4266,-4.4265,-4.4264,0,-4.4044,-4.4045,-4.4103,-4.4144,-4.4193,-4.4124,-4.4151,-4.4197,-4.4271,-4.429,-4.4337,-4.4418,-4.4479,-4.4465,-4.452,-4.4575,-4.4546,-4.4591,-4.4588,-4.4591,-4.4334,-4.4303,-4.4614,-4.4614,-4.4614,-4.4614,-4.4614,-4.4613,-4.4216,-4.4332,-4.4309,-4.4432,-4.4432,-4.4512,-4.4534,-4.4559,-4.4574,-4.4667,-4.4717,-4.4707,-4.4713,-4.4768,-4.4821,-4.4815,-4.4841,-4.4898,-4.4883,-4.4643,-4.4609,-4.4576,-4.4547,-4.4904,-4.4904,-4.5134,-4.5136,-4.5138]},{"header":{"parameterUnit":"m.s-1","parameterCategory":1,"la1":30.2991,"la2":30.254,"lo1":-89.0895,"lo2":-89.0444,"dy":0.0017,"dx":0.0017,"nx":28,"ny":28,"refTime":"2024-10-04T03:00:00:Z","depth":0,"parameterNumber":3,"parameterNumberName":"V-component_of_WINDS"},"data":[0,0,0,0,0,0,0,0,0,0,0,0,0,0,0,0,0,0,0,0,0,0,0,0,0,0,0,0,0,0,0,0,0,0,0,0,0,0,0,0,0,0,0,0,0,0,0,0,0,0,0,0,0,0,0,0,0,0,-3.4502,-3.4502,0,-3.4494,-3.4494,-3.4494,-3.445,-3.4449,-3.4448,-3.4447,-3.4437,-3.4438,-3.4439,0,0,0,0,0,0,0,0,0,0,0,0,0,-3.4477,-3.4478,-3.4502,-3.4502,-3.4502,-3.4494,-3.4494,-3.4494,-3.445,-3.4449,-3.4448,-3.4446,-3.4437,-3.4438,-3.4439,0,0,0,0,0,0,0,0,0,0,0,0,0,-3.448,-3.4478,-3.4502,-3.4479,-3.4477,-3.4494,-3.4494,-3.4494,-3.445,-3.4449,-3.4447,-3.4446,-3.4437,-3.4438,-3.4439,-3.4477,0,0,-3.4442,-3.4443,0,0,0,0,0,0,0,0,-3.448,-3.4481,-3.4483,-3.4481,-3.4478,-3.4471,-3.4482,-3.4488,-3.4451,-3.446,-3.4447,-3.4445,-3.445,-3.445,-3.4452,-3.4477,-3.4476,-3.4442,-3.4443,-3.4444,-3.4444,0,0,0,0,0,0,0,-3.448,-3.4481,-3.4499,-3.4483,-3.448,-3.4468,-3.4467,-3.4483,-3.4464,-3.446,-3.4456,-3.4456,-3.4448,-3.4451,-3.4451,-3.4476,-3.4442,-3.4443,-3.4444,-3.4444,-3.4529,-3.453,0,0,0,0,0,0,-3.4483,-3.4481,-3.4499,-3.4499,-3.4475,-3.447,-3.4469,-3.4475,-3.4464,-3.4461,-3.4457,-3.4454,-3.445,-3.445,-3.4451,-3.4492,-3.4444,-3.4445,-3.4445,-3.4527,-3.4529,-3.4531,0,0,0,0,0,0,-3.4483,-3.4485,-3.4499,-3.4489,-3.449,-3.4472,-3.448,-3.4476,-3.4478,-3.4462,-3.4458,-3.4463,-3.4448,-3.4449,-3.447,-3.4492,-3.4445,-3.4446,-3.4526,-3.4528,-3.453,-3.4578,0,0,0,0,0,0,-3.4482,-3.4485,-3.4501,-3.449,-3.4491,-3.452,-3.4481,-3.4477,-3.448,-3.4476,-3.4467,-3.4464,-3.4447,-3.4469,-3.4471,-3.4492,-3.4447,-3.4523,-3.4527,-3.4529,-3.4574,-3.4581,-3.4588,0,0,0,0,0,-3.4482,-3.4515,-3.4502,-3.4504,-3.4509,-3.4522,-3.4522,-3.4503,-3.4482,-3.4497,-3.4486,-3.4464,-3.4489,-3.4471,-3.4474,-3.4495,-3.4522,-3.4526,-3.4529,-3.4571,-3.458,-3.4587,0,0,0,0,0,0,-3.4528,-3.4513,-3.4498,-3.4529,-3.4527,-3.4514,-3.4532,-3.4513,-3.4517,-3.4512,-3.4488,-3.4486,-3.451,-3.4505,-3.4486,-3.453,-3.4502,-3.4506,-3.4533,-3.4541,-3.4548,-3.4548,-3.4448,0,0,0,0,0,-3.4542,-3.4554,-3.454,-3.4568,-3.4568,-3.455,-3.4555,-3.454,-3.4537,-3.4536,-3.4526,-3.4524,-3.453,-3.4536,-3.4541,-3.4573,-3.4569,-3.4589,-3.4596,-3.4602,-3.4605,-3.4619,-3.4627,-3.4543,-3.4543,-3.4543,0,0,-3.4571,-3.4564,-3.4573,-3.4577,-3.4574,-3.4585,-3.455,-3.4564,-3.4572,-3.4538,-3.4556,-3.455,-3.4545,-3.4571,-3.4582,-3.4567,-3.4627,-3.4606,-3.4611,-3.4611,-3.4623,-3.4631,-3.4639,-3.4545,-3.4545,-3.4544,0,0,-3.4629,-3.4626,-3.4648,-3.4645,-3.464,-3.4628,-3.4633,-3.4623,-3.4617,-3.4636,-3.4609,-3.4618,-3.4631,-3.4628,-3.4628,-3.4683,-3.4662,-3.4686,-3.472,-3.4734,-3.4741,-3.4746,-3.4764,-3.4771,-3.4689,-3.4689,-3.469,0,-3.4665,-3.4682,-3.4661,-3.4677,-3.4678,-3.4648,-3.4669,-3.4667,-3.4664,-3.4666,-3.4649,-3.4664,-3.4658,-3.4682,-3.4695,-3.4697,-3.4701,-3.4686,-3.4742,-3.4747,-3.4752,-3.4768,-3.4775,-3.4692,-3.4692,-3.4692,-3.4691,0,-3.4726,-3.4738,-3.4756,-3.4753,-3.4757,-3.4776,-3.4756,-3.4763,-3.4747,-3.4736,-3.4754,-3.4747,-3.4749,-3.4754,-3.474,-3.4775,-3.4766,-3.4746,-3.4717,-3.4763,-3.4778,-3.4784,-3.4696,-3.4695,-3.4694,-3.4694,0,0,-3.4813,-3.4798,-3.4805,-3.4802,-3.4794,-3.4802,-3.4818,-3.4821,-3.4825,-3.4825,-3.4836,-3.4847,-3.4828,-3.4828,-3.4813,-3.4825,-3.4866,-3.4803,-3.4803,-3.4814,-3.4902,-3.4916,-3.4923,-3.4853,-3.4854,-3.4855,-3.4902,0,-3.4867,-3.4893,-3.4874,-3.4904,-3.4913,-3.4884,-3.4897,-3.4893,-3.4883,-3.4889,-3.4877,-3.4885,-3.486,-3.486,-3.4871,-3.4859,-3.4883,-3.4855,-3.4861,-3.4862,-3.4862,-3.4931,-3.4946,-3.4991,-3.4908,-3.4909,-3.4909,0,-3.4933,-3.4934,-3.4964,-3.4952,-3.4955,-3.4968,-3.4967,-3.4974,-3.4968,-3.4959,-3.4959,-3.4939,-3.4952,-3.4925,-3.4941,-3.4923,-3.4924,-3.4919,-3.492,-3.4918,-3.4887,-3.493,-3.5005,-3.5011,-3.4919,-3.4918,-3.4917,0,-3.4991,-3.5,-3.5018,-3.5018,-3.5004,-3.5013,-3.5008,-3.5001,-3.5002,-3.5002,-3.5002,-3.5004,-3.5004,-3.5005,-3.4985,-3.4967,-3.5004,-3.4975,-3.4996,-3.4996,-3.5004,-3.5003,-3.5078,-3.5008,-3.5008,-3.5008,-3.5007,0,-3.5052,-3.5071,-3.5044,-3.5055,-3.5075,-3.5053,-3.5073,-3.5064,-3.5057,-3.5066,-3.504,-3.5048,-3.5023,-3.5028,-3.5014,-3.5028,-3.5029,-3.5022,-3.5017,-3.5023,-3.5024,-3.5022,-3.5018,-3.5009,-3.5009,-3.5009,-3.5008,0,-3.5119,-3.5102,-3.512,-3.5106,-3.5102,-3.5118,-3.5104,-3.5114,-3.5101,-3.5112,-3.5113,-3.5094,-3.5098,-3.5079,-3.5081,-3.5071,-3.5092,-3.5084,-3.5094,-3.5091,-3.5112,-3.5109,-3.5187,-3.5195,-3.5122,-3.5123,-3.5123,0,-3.5158,-3.5172,-3.5159,-3.5162,-3.5158,-3.5165,-3.5166,-3.5144,-3.5146,-3.5139,-3.5149,-3.5151,-3.5152,-3.516,-3.5145,-3.5146,-3.5135,-3.5163,-3.5135,-3.514,-3.5133,-3.5132,-3.5132,-3.5168,-3.5169,-3.517,-3.517,0,-3.5229,-3.5219,-3.5223,-3.5222,-3.5225,-3.5224,-3.5221,-3.5225,-3.5201,-3.5204,-3.5208,-3.5209,-3.521,-3.5211,-3.5208,-3.5202,-3.5181,-3.5179,-3.5183,-3.5189,-3.5193,-3.5189,-3.5108,-3.5177,-3.5176,-3.5176,-3.5176,-3.5175,-3.5282,-3.5292,-3.5283,-3.5287,-3.5282,-3.528,-3.5287,-3.5275,-3.5278,-3.5277,-3.5264,-3.527,-3.5261,-3.5255,-3.525,-3.5254,-3.5241,-3.5248,-3.5249,-3.5251,-3.5254,-3.5194,-3.5254,-3.5253,-3.5253,-3.5253,-3.5253,0,-3.5349,-3.5342,-3.5345,-3.5342,-3.5344,-3.5325,-3.532,-3.5323,-3.5329,-3.5323,-3.5324,-3.5327,-3.5328,-3.5314,-3.5313,-3.5318,-3.5309,-3.5318,-3.5317,-3.5315,-3.5266,-3.5262,-3.5326,-3.5326,-3.5326,-3.5326,-3.5326,-3.5326,-3.5384,-3.5399,-3.5388,-3.54,-3.5392,-3.5398,-3.5397,-3.5393,-3.5388,-3.5393,-3.5394,-3.5384,-3.5374,-3.5372,-3.5372,-3.5367,-3.5367,-3.538,-3.5372,-3.5326,-3.5319,-3.5312,-3.5307,-3.538,-3.5381,-3.542,-3.542,-3.5421]}]]